Location: Corcelles
(46.1547°N, 4.7234°E)
Time: 08:44:47
(UTC+00:00)

Sich 1 Rocket - Pass Details

Date: 14 July 2020
Orbit: 615 x 653 km, 82.5° (Epoch: 14 August)

Event Time Altitude Azimuth Distance (km) Brightness Sun altitude
Rises 03:15:36 0° 179° (S) 2,952 6.6 -7.4°
Reaches altitude 10° 03:17:52 10° 177° (S) 2,043 5.9 -7.2°
Maximum altitude 03:22:22 66° 96° (E) 706 4.1 -6.6°
Drops below altitude 10° 03:26:50 10° 14° (NNE) 2,038 7.2 -6.0°
Sets 03:29:05 0° 12° (NNE) 2,945 8.0 -5.7°
